{"data":{"norad_id":48650,"intl_designator":"2021-044N","name":"STARLINK-2672","alt_names":[],"object_type":"PAYLOAD","status":"ACTIVE","operator":null,"country":"US","launch_date":"2021-05-26","launch_site_code":"AFETR","launch_vehicle":null,"mission":null,"orbit_class":"UNKNOWN","rcs_meters":null,"size_class":null,"mass_kg":null,"dimensions":null,"purposes":["comms"],"wikipedia_slug":null,"has_3d_model":false,"image_url":null,"decayed_at":null,"tle_current":{"epoch":"2026-05-25T05:07:25.370976Z","epoch_age_seconds":63873,"freshness":"FRESH","line1":"1 48650U 21044N   26145.21348809  .00002716  00000+0  99221-4 0  9999","line2":"2 48650  53.1570 118.0351 0001036  95.0006 265.1114 15.31706510275547","mean_motion":15.3170651,"eccentricity":0.0001036,"inclination_deg":53.157,"raan_deg":118.0351,"arg_perigee_deg":95.0006,"mean_anomaly_deg":265.1114,"bstar":9.9221e-5,"rev_number":27554,"period_min":94.012788389859,"perigee_km":470.01104767688,"apogee_km":471.43013096939,"semimajor_km":6848.8575893231,"source":"CELESTRAK","updated_at":"2026-05-25T13:38:16.755053Z"}}}